30-10-2023, 00:00:04,    193,    0.0,    7.6,   0.00,   0.00,  991.5,    0.5, -999.0
30-10-2023, 00:00:14,    193,    0.0,    7.6,   0.00,   0.00,  991.4,    0.6, -999.0
30-10-2023, 00:00:24,    187,    0.4,    7.7,   0.00,   0.00,  991.5,    0.4, -999.0
30-10-2023, 00:00:34,    187,    0.5,    7.7,   0.00,   0.00,  991.6,    0.7, -999.0
30-10-2023, 00:00:44,    187,    0.1,    7.7,   0.00,   0.00,  991.5,    0.6, -999.0
30-10-2023, 00:00:54,    187,    0.0,    7.7,   0.00,   0.00,  991.4,    0.5, -999.0
30-10-2023, 00:01:04,    187,    0.0,    7.6,   0.00,   0.00,  991.5,    0.4, -999.0
30-10-2023, 00:01:14,    138,    1.3,    7.7,   0.00,   0.00,  991.5,    0.8, -999.0
30-10-2023, 00:01:24,    180,    0.2,    7.7,   0.00,   0.00,  991.5,    0.7, -999.0
30-10-2023, 00:01:34,    179,    0.4,    7.7,   0.00,   0.00,  991.6,    1.0, -999.0
30-10-2023, 00:01:44,    179,    0.0,    7.7,   0.00,   0.00,  991.4,    0.4, -999.0
30-10-2023, 00:01:54,    178,    0.0,    7.7,   0.00,   0.00,  991.5,    0.5, -999.0
30-10-2023, 00:02:04,    175,    1.3,    7.7,   0.00,   0.00,  991.6,    0.3, -999.0
30-10-2023, 00:02:14,    175,    0.2,    7.7,   0.00,   0.00,  991.6,    0.5, -999.0
30-10-2023, 00:02:24,    176,    0.0,    7.7,   0.00,   0.00,  991.4,    0.4, -999.0
30-10-2023, 00:02:34,    175,    0.1,    7.7,   0.00,   0.00,  991.5,    0.5, -999.0
30-10-2023, 00:02:44,    178,    0.1,    7.7,   0.00,   0.00,  991.6,    0.4, -999.0
30-10-2023, 00:02:54,    175,    0.6,    7.7,   0.00,   0.00,  991.5,    0.5, -999.0
30-10-2023, 00:03:03,    175,    1.1,    7.8,   0.00,   0.00,  991.6,    0.5, -999.0
30-10-2023, 00:03:14,    175,    0.0,    7.6,   0.00,   0.00,  991.5,    0.4, -999.0
30-10-2023, 00:03:24,    174,    0.4,    7.7,   0.00,   0.00,  991.6,    0.4, -999.0
30-10-2023, 00:03:33,    212,    1.1,    7.7,   0.00,   0.00,  991.6,    0.6, -999.0
30-10-2023, 00:03:43,    174,    1.2,    7.7,   0.00,   0.00,  991.6,    0.5, -999.0
30-10-2023, 00:03:54,    173,    0.7,    7.7,   0.00,   0.00,  991.5,    0.6, -999.0
30-10-2023, 00:04:04,    173,    0.0,    7.6,   0.00,   0.00,  991.4,    0.6, -999.0
30-10-2023, 00:04:13,    197,    0.0,    7.7,   0.00,   0.00,  991.5,    0.5, -999.0
30-10-2023, 00:04:23,    199,    0.4,    7.7,   0.00,   0.00,  991.6,    0.9, -999.0
30-10-2023, 00:04:34,    190,    0.4,    7.7,   0.00,   0.00,  991.6,    0.4, -999.0
30-10-2023, 00:04:43,    188,    0.1,    7.7,   0.00,   0.00,  991.5,    0.4, -999.0
30-10-2023, 00:04:53,    189,    0.4,    7.7,   0.00,   0.00,  991.6,    0.5, -999.0
30-10-2023, 00:05:03,    149,    0.7,    7.8,   0.00,   0.00,  991.6,    0.6, -999.0
30-10-2023, 00:05:14,    187,    1.0,    7.8,   0.00,   0.00,  991.6,    0.5, -999.0
30-10-2023, 00:05:23,    146,    0.6,    7.8,   0.00,   0.00,  991.6,    0.6, -999.0
30-10-2023, 00:05:33,    146,    0.4,    7.8,   0.00,   0.00,  991.5,    0.4, -999.0
30-10-2023, 00:05:43,    157,    0.7,    7.8,   0.00,   0.00,  991.6,    0.6, -999.0
30-10-2023, 00:05:53,    158,    0.3,    7.8,   0.00,   0.00,  991.6,    0.5, -999.0
30-10-2023, 00:06:03,    174,    0.1,    7.8,   0.00,   0.00,  991.5,    0.5, -999.0
30-10-2023, 00:06:13,    176,    0.8,    7.7,   0.00,   0.00,  991.5,    0.5, -999.0
30-10-2023, 00:06:23,    176,    0.3,    7.8,   0.00,   0.00,  991.5,    0.5, -999.0
30-10-2023, 00:06:33,    176,    0.0,    7.7,   0.00,   0.00,  991.5,    0.4, -999.0
30-10-2023, 00:06:43,    176,    0.0,    7.7,   0.00,   0.00,  991.4,    0.5, -999.0
30-10-2023, 00:06:53,    146,    1.3,    7.8,   0.00,   0.00,  991.6,    0.7, -999.0
30-10-2023, 00:07:03,    146,    0.2,    7.8,   0.00,   0.00,  991.5,    0.5, -999.0
30-10-2023, 00:07:13,    146,    0.0,    7.7,   0.00,   0.00,  991.5,    0.4, -999.0
30-10-2023, 00:07:23,    146,    0.0,    7.7,   0.00,   0.00,  991.4,    0.5, -999.0
30-10-2023, 00:07:33,    146,    0.0,    7.7,   0.00,   0.00,  991.4,    0.5, -999.0
30-10-2023, 00:07:43,    146,    0.0,    7.7,   0.00,   0.00,  991.5,    0.7, -999.0
30-10-2023, 00:07:53,    220,    0.3,    7.7,   0.00,   0.00,  991.5,    0.4, -999.0
30-10-2023, 00:08:03,    160,    0.0,    7.7,   0.00,   0.00,  991.5,    0.4, -999.0
30-10-2023, 00:08:13,    182,    0.6,    7.7,   0.00,   0.00,  991.5,    0.5, -999.0
30-10-2023, 00:08:23,    181,    0.7,    7.8,   0.00,   0.00,  991.6,    0.5, -999.0
30-10-2023, 00:08:33,    180,    0.1,    7.8,   0.00,   0.00,  991.5,    0.5, -999.0
30-10-2023, 00:08:43,    180,    0.0,    7.7,   0.00,   0.00,  991.4,    0.6, -999.0
30-10-2023, 00:08:53,    152,    1.2,    7.7,   0.00,   0.00,  991.5,    0.5, -999.0
30-10-2023, 00:09:03,    151,    0.0,    7.7,   0.00,   0.00,  991.5,    0.3, -999.0
30-10-2023, 00:09:13,    154,    2.2,    7.8,   0.00,   0.00,  991.6,    0.5, -999.0
30-10-2023, 00:09:23,    165,    1.9,    7.9,   0.00,   0.00,  991.6,    0.4, -999.0
30-10-2023, 00:09:33,    166,    0.0,    7.8,   0.00,   0.00,  991.4,    0.6, -999.0
30-10-2023, 00:09:43,    166,    0.0,    7.8,   0.00,   0.00,  991.4,    0.3, -999.0
30-10-2023, 00:09:53,    165,    0.0,    7.8,   0.00,   0.00,  991.4,    0.5, -999.0
30-10-2023, 00:10:03,    166,    0.0,    7.7,   0.00,   0.00,  991.4,    0.6, -999.0
30-10-2023, 00:10:13,    170,    0.0,    7.8,   0.00,   0.00,  991.5,    0.5, -999.0
30-10-2023, 00:10:23,    170,    0.0,    7.8,   0.00,   0.00,  991.4,    0.5, -999.0
30-10-2023, 00:10:33,    249,    0.6,    7.8,   0.00,   0.00,  991.5,    0.6, -999.0
30-10-2023, 00:10:42,    248,    0.0,    7.8,   0.00,   0.00,  991.5,    0.5, -999.0
30-10-2023, 00:10:53,    246,    0.0,    7.8,   0.00,   0.00,  991.4,    0.6, -999.0
30-10-2023, 00:11:03,    246,    0.0,    7.7,   0.00,   0.00,  991.4,    0.5, -999.0
30-10-2023, 00:11:13,    179,    0.1,    7.6,   0.00,   0.00,  991.5,    0.5, -999.0
30-10-2023, 00:11:22,    168,    0.0,    7.8,   0.00,   0.00,  991.5,    0.4, -999.0
30-10-2023, 00:11:33,    168,    0.1,    7.8,   0.00,   0.00,  991.5,    0.5, -999.0
30-10-2023, 00:11:43,    158,    1.4,    7.9,   0.00,   0.00,  991.6,    0.6, -999.0
30-10-2023, 00:11:52,    159,    0.7,    7.9,   0.00,   0.00,  991.5,    0.4, -999.0
30-10-2023, 00:12:02,    159,    0.0,    7.8,   0.00,   0.00,  991.4,    0.4, -999.0
30-10-2023, 00:12:13,    160,    0.0,    7.8,   0.00,   0.00,  991.4,    0.6, -999.0
30-10-2023, 00:12:22,    160,    0.0,    7.8,   0.00,   0.00,  991.5,    0.4, -999.0
30-10-2023, 00:12:32,    162,    0.3,    7.9,   0.00,   0.00,  991.5,    0.3, -999.0
30-10-2023, 00:12:42,    162,    0.0,    7.8,   0.00,   0.00,  991.5,    0.5, -999.0
30-10-2023, 00:12:53,    162,    0.0,    7.9,   0.00,   0.00,  991.5,    0.5, -999.0
30-10-2023, 00:13:02,    162,    0.0,    7.8,   0.00,   0.00,  991.5,    0.3, -999.0
30-10-2023, 00:13:12,    162,    0.0,    7.9,   0.00,   0.00,  991.5,    0.6, -999.0
30-10-2023, 00:13:22,    162,    0.0,    7.9,   0.00,   0.00,  991.6,    0.5, -999.0
30-10-2023, 00:13:32,    162,    0.0,    7.9,   0.00,   0.00,  991.5,    0.5, -999.0
30-10-2023, 00:13:42,    176,    0.9,    7.8,   0.00,   0.00,  991.5,    0.7, -999.0
30-10-2023, 00:13:52,    195,    1.3,    8.0,   0.00,   0.00,  991.6,    0.5, -999.0
30-10-2023, 00:14:02,    185,    0.9,    7.9,   0.00,   0.00,  991.6,    0.7, -999.0
30-10-2023, 00:14:12,    190,    0.9,    7.9,   0.00,   0.00,  991.6,    0.7, -999.0
30-10-2023, 00:14:22,    187,    0.0,    7.9,   0.00,   0.00,  991.5,    0.5, -999.0
30-10-2023, 00:14:32,    186,    0.5,    7.9,   0.00,   0.00,  991.6,    0.8, -999.0
30-10-2023, 00:14:42,    131,    1.1,    7.9,   0.00,   0.00,  991.6,    0.7, -999.0
30-10-2023, 00:14:52,    160,    2.2,    8.0,   0.00,   0.00,  991.7,    0.4, -999.0
30-10-2023, 00:15:02,    164,    0.9,    8.1,   0.00,   0.00,  991.6,    0.5, -999.0
30-10-2023, 00:15:12,    183,    1.7,    8.0,   0.00,   0.00,  991.6,    0.5, -999.0
30-10-2023, 00:15:22,    167,    0.6,    8.0,   0.00,   0.00,  991.7,    0.4, -999.0
30-10-2023, 00:15:32,    159,    1.2,    8.1,   0.00,   0.00,  991.7,    0.7, -999.0
30-10-2023, 00:15:42,    192,    0.4,    8.0,   0.00,   0.00,  991.6,    0.5, -999.0
30-10-2023, 00:15:52,    196,    0.8,    8.0,   0.00,   0.00,  991.7,    0.6, -999.0
30-10-2023, 00:16:02,    174,    0.5,    8.0,   0.00,   0.00,  991.6,    0.5, -999.0
30-10-2023, 00:16:12,    175,    0.0,    8.0,   0.00,   0.00,  991.5,    0.5, -999.0
30-10-2023, 00:16:22,    170,    1.5,    8.1,   0.00,   0.00,  991.7,    0.7, -999.0
30-10-2023, 00:16:32,    170,    0.3,    8.1,   0.00,   0.00,  991.7,    0.4, -999.0
30-10-2023, 00:16:42,    200,    1.7,    8.1,   0.00,   0.00,  991.7,    0.5, -999.0
30-10-2023, 00:16:52,    220,    0.6,    8.0,   0.00,   0.00,  991.7,    0.5, -999.0
30-10-2023, 00:17:02,    202,    0.0,    8.0,   0.00,   0.00,  991.5,    0.5, -999.0
30-10-2023, 00:17:12,    202,    0.0,    8.0,   0.00,   0.00,  991.6,    0.4, -999.0
30-10-2023, 00:17:22,    189,    0.6,    8.1,   0.00,   0.00,  991.7,    0.4, -999.0
30-10-2023, 00:17:32,    169,    1.8,    8.1,   0.00,   0.00,  991.7,    0.4, -999.0
30-10-2023, 00:17:42,    141,    1.3,    8.1,   0.00,   0.00,  991.7,    0.3, -999.0
30-10-2023, 00:17:52,    168,    0.6,    8.0,   0.00,   0.00,  991.7,    0.5, -999.0
30-10-2023, 00:18:02,    167,    1.0,    8.1,   0.00,   0.00,  991.7,    0.8, -999.0
30-10-2023, 00:18:12,    171,    0.5,    8.0,   0.00,   0.00,  991.7,    0.8, -999.0
30-10-2023, 00:18:22,    174,    0.3,    8.1,   0.00,   0.00,  991.7,    0.6, -999.0
30-10-2023, 00:18:31,    171,    0.5,    8.0,   0.00,   0.00,  991.7,    0.6, -999.0
30-10-2023, 00:18:42,    134,    3.0,    8.0,   0.00,   0.00,  991.7,    0.4, -999.0
30-10-2023, 00:18:52,    192,    1.7,    8.1,   0.00,   0.00,  991.7,    0.8, -999.0
30-10-2023, 00:19:01,    141,    1.7,    8.1,   0.00,   0.00,  991.7,    0.5, -999.0
30-10-2023, 00:19:11,    161,    1.5,    8.1,   0.00,   0.00,  991.7,    0.5, -999.0
30-10-2023, 00:19:22,    161,    1.2,    8.1,   0.00,   0.00,  991.7,    0.4, -999.0
30-10-2023, 00:19:32,    160,    0.5,    8.1,   0.00,   0.00,  991.6,    0.7, -999.0
30-10-2023, 00:19:41,    160,    0.0,    7.9,   0.00,   0.00,  991.6,    0.5, -999.0
30-10-2023, 00:19:52,    173,    0.0,    8.0,   0.00,   0.00,  991.6,    0.5, -999.0
30-10-2023, 00:20:02,    178,    1.5,    8.1,   0.00,   0.00,  991.7,    0.5, -999.0
30-10-2023, 00:20:11,    161,    1.1,    8.1,   0.00,   0.00,  991.7,    0.8, -999.0
30-10-2023, 00:20:21,    161,    0.2,    8.1,   0.00,   0.00,  991.7,    0.6, -999.0
30-10-2023, 00:20:32,    161,    0.0,    7.9,   0.00,   0.00,  991.5,    0.6, -999.0
30-10-2023, 00:20:41,    161,    0.1,    8.0,   0.00,   0.00,  991.7,    0.8, -999.0
30-10-2023, 00:20:51,    161,    0.1,    8.1,   0.00,   0.00,  991.7,    0.6, -999.0
30-10-2023, 00:21:01,    161,    0.0,    8.0,   0.00,   0.00,  991.6,    0.6, -999.0
30-10-2023, 00:21:12,    191,    0.3,    8.0,   0.00,   0.00,  991.6,    0.5, -999.0
30-10-2023, 00:21:21,    197,    0.4,    8.1,   0.00,   0.00,  991.7,    0.6, -999.0
30-10-2023, 00:21:31,    195,    0.5,    8.1,   0.00,   0.00,  991.7,    0.9, -999.0
30-10-2023, 00:21:41,    195,    0.2,    8.0,   0.00,   0.00,  991.6,    0.5, -999.0
30-10-2023, 00:21:51,    195,    0.0,    8.0,   0.00,   0.00,  991.6,    0.6, -999.0
30-10-2023, 00:22:01,    195,    0.0,    8.0,   0.00,   0.00,  991.6,    0.5, -999.0
30-10-2023, 00:22:11,    195,    0.0,    8.0,   0.00,   0.00,  991.6,    0.5, -999.0
30-10-2023, 00:22:21,    153,    1.2,    8.0,   0.00,   0.00,  991.7,    0.7, -999.0
30-10-2023, 00:22:31,    157,    2.5,    8.1,   0.00,   0.00,  991.7,    0.3, -999.0
30-10-2023, 00:22:41,    157,    0.4,    8.1,   0.00,   0.00,  991.7,    0.7, -999.0
30-10-2023, 00:22:51,    158,    0.1,    8.1,   0.00,   0.00,  991.7,    0.5, -999.0
30-10-2023, 00:23:01,    200,    0.4,    8.0,   0.00,   0.00,  991.7,    0.4, -999.0
30-10-2023, 00:23:11,    116,    1.3,    8.1,   0.00,   0.00,  991.7,    0.6, -999.0
30-10-2023, 00:23:21,    157,    1.8,    8.0,   0.00,   0.00,  991.7,    0.7, -999.0
30-10-2023, 00:23:31,    156,    0.4,    8.1,   0.00,   0.00,  991.7,    0.5, -999.0
30-10-2023, 00:23:41,    186,    1.2,    8.1,   0.00,   0.00,  991.7,    0.5, -999.0
30-10-2023, 00:23:51,    186,    0.1,    8.1,   0.00,   0.00,  991.6,    0.7, -999.0
30-10-2023, 00:24:01,    220,    0.4,    8.1,   0.00,   0.00,  991.6,    0.4, -999.0
30-10-2023, 00:24:11,    161,    0.8,    8.1,   0.00,   0.00,  991.7,    0.6, -999.0
30-10-2023, 00:24:21,    161,    1.4,    8.2,   0.00,   0.00,  991.7,    0.7, -999.0
30-10-2023, 00:24:31,    138,    1.6,    8.1,   0.00,   0.00,  991.7,    0.6, -999.0
30-10-2023, 00:24:41,    182,    2.4,    8.2,   0.00,   0.00,  991.7,    0.6, -999.0
30-10-2023, 00:24:51,    180,    0.8,    8.2,   0.00,   0.00,  991.7,    0.4, -999.0
30-10-2023, 00:25:01,    177,    1.1,    8.2,   0.00,   0.00,  991.8,    0.7, -999.0
30-10-2023, 00:25:11,    172,    0.7,    8.2,   0.00,   0.00,  991.7,    0.5, -999.0
30-10-2023, 00:25:21,    171,    1.7,    8.2,   0.00,   0.00,  991.7,    0.6, -999.0
30-10-2023, 00:25:31,    173,    0.1,    8.1,   0.00,   0.00,  991.6,    0.4, -999.0
30-10-2023, 00:25:41,    174,    0.0,    8.1,   0.00,   0.00,  991.6,    0.6, -999.0
30-10-2023, 00:25:51,    174,    0.0,    8.1,   0.00,   0.00,  991.6,    0.5, -999.0
30-10-2023, 00:26:01,    174,    0.3,    8.0,   0.00,   0.00,  991.7,    0.5, -999.0
30-10-2023, 00:26:11,    174,    0.8,    8.2,   0.00,   0.00,  991.7,    0.5, -999.0
30-10-2023, 00:26:21,    178,    1.4,    8.2,   0.00,   0.00,  991.7,    0.4, -999.0
30-10-2023, 00:26:31,    149,    1.9,    8.2,   0.00,   0.00,  991.7,    0.5, -999.0
30-10-2023, 00:26:41,    149,    0.4,    8.2,   0.00,   0.00,  991.7,    0.6, -999.0
30-10-2023, 00:26:51,    150,    0.5,    8.1,   0.00,   0.00,  991.7,    0.6, -999.0
30-10-2023, 00:27:00,    199,    0.7,    8.2,   0.00,   0.00,  991.7,    0.6, -999.0
30-10-2023, 00:27:11,    174,    1.8,    8.1,   0.00,   0.00,  991.7,    0.9, -999.0
30-10-2023, 00:27:21,    150,    2.7,    8.1,   0.00,   0.00,  991.7,    0.8, -999.0
30-10-2023, 00:27:30,    201,    1.0,    8.1,   0.00,   0.00,  991.7,    0.5, -999.0
30-10-2023, 00:27:40,    163,    0.6,    8.2,   0.00,   0.00,  991.7,    0.6, -999.0
30-10-2023, 00:27:51,    185,    0.8,    8.1,   0.00,   0.00,  991.7,    0.4, -999.0
30-10-2023, 00:28:01,    163,    0.8,    8.2,   0.00,   0.00,  991.7,    0.7, -999.0
30-10-2023, 00:28:10,    173,    0.1,    8.1,   0.00,   0.00,  991.7,    0.6, -999.0
30-10-2023, 00:28:20,    185,    2.3,    8.2,   0.00,   0.00,  991.7,    0.5, -999.0
30-10-2023, 00:28:31,    154,    2.0,    8.1,   0.00,   0.00,  991.7,    0.7, -999.0
30-10-2023, 00:28:40,    185,    0.9,    8.2,   0.00,   0.00,  991.7,    0.5, -999.0
30-10-2023, 00:28:50,    185,    0.5,    8.2,   0.00,   0.00,  991.7,    0.7, -999.0
30-10-2023, 00:29:00,    191,    0.3,    8.2,   0.00,   0.00,  991.7,    0.4, -999.0
30-10-2023, 00:29:10,    162,    0.3,    8.2,   0.00,   0.00,  991.7,    0.9, -999.0
30-10-2023, 00:29:20,    184,    0.3,    8.2,   0.00,   0.00,  991.8,    0.8, -999.0
30-10-2023, 00:29:30,    159,    1.0,    8.2,   0.00,   0.00,  991.7,    0.7, -999.0
30-10-2023, 00:29:41,    173,    1.2,    8.2,   0.00,   0.00,  991.7,    0.6, -999.0
30-10-2023, 00:29:50,    182,    1.8,    8.2,   0.00,   0.00,  991.7,    0.6, -999.0
30-10-2023, 00:30:00,    181,    0.5,    8.2,   0.00,   0.00,  991.7,    0.7, -999.0
30-10-2023, 00:30:10,    184,    1.0,    8.2,   0.00,   0.00,  991.7,    0.6, -999.0
30-10-2023, 00:30:20,    182,    0.6,    8.2,   0.00,   0.00,  991.6,    0.5, -999.0
30-10-2023, 00:30:30,    182,    0.1,    8.2,   0.00,   0.00,  991.6,    0.9, -999.0
30-10-2023, 00:30:40,    182,    0.0,    8.2,   0.00,   0.00,  991.6,    1.1, -999.0
30-10-2023, 00:30:50,    181,    0.4,    8.1,   0.00,   0.00,  991.7,    0.8, -999.0
30-10-2023, 00:31:00,    179,    0.6,    8.2,   0.00,   0.00,  991.7,    0.4, -999.0
30-10-2023, 00:31:10,    188,    0.3,    8.2,   0.00,   0.00,  991.7,    0.6, -999.0
30-10-2023, 00:31:20,    200,    2.7,    8.2,   0.00,   0.00,  991.7,    0.7, -999.0
30-10-2023, 00:31:30,    157,    0.8,    8.2,   0.00,   0.00,  991.7,    0.6, -999.0
30-10-2023, 00:31:40,    184,    0.7,    8.2,   0.00,   0.00,  991.7,    0.6, -999.0
30-10-2023, 00:31:50,    184,    0.1,    8.2,   0.00,   0.00,  991.7,    0.6, -999.0
30-10-2023, 00:32:00,    182,    0.1,    8.2,   0.00,   0.00,  991.7,    0.4, -999.0
30-10-2023, 00:32:10,    171,    0.3,    8.2,   0.00,   0.00,  991.7,    0.6, -999.0
30-10-2023, 00:32:20,    204,    0.6,    8.3,   0.00,   0.00,  991.7,    0.6, -999.0
30-10-2023, 00:32:30,    187,    0.7,    8.3,   0.00,   0.00,  991.7,    0.6, -999.0
30-10-2023, 00:32:40,    190,    0.4,    8.3,   0.00,   0.00,  991.7,    0.6, -999.0
30-10-2023, 00:32:50,    190,    0.0,    8.2,   0.00,   0.00,  991.6,    0.7, -999.0
30-10-2023, 00:33:00,    194,    0.0,    8.2,   0.00,   0.00,  991.6,    0.4, -999.0
30-10-2023, 00:33:10,    231,    0.6,    8.2,   0.00,   0.00,  991.7,    0.4, -999.0
30-10-2023, 00:33:20,    222,    2.0,    8.2,   0.00,   0.00,  991.8,    0.8, -999.0
30-10-2023, 00:33:30,    206,    0.2,    8.2,   0.00,   0.00,  991.7,    1.0, -999.0
30-10-2023, 00:33:40,    203,    0.0,    8.2,   0.00,   0.00,  991.7,    0.4, -999.0
30-10-2023, 00:33:50,    204,    0.0,    8.2,   0.00,   0.00,  991.6,    0.7, -999.0
30-10-2023, 00:34:00,    203,    0.1,    8.2,   0.00,   0.00,  991.7,    0.2, -999.0
30-10-2023, 00:34:10,    203,    0.0,    8.2,   0.00,   0.00,  991.6,    0.4, -999.0
30-10-2023, 00:34:20,    203,    0.1,    8.2,   0.00,   0.00,  991.7,    0.5, -999.0
30-10-2023, 00:34:30,    203,    0.3,    8.2,   0.00,   0.00,  991.7,    1.0, -999.0
30-10-2023, 00:34:39,    203,    0.0,    8.1,   0.00,   0.00,  991.6,    0.5, -999.0
30-10-2023, 00:34:50,    201,    0.1,    8.2,   0.00,   0.00,  991.7,    0.7, -999.0
30-10-2023, 00:35:00,    201,    0.5,    8.2,   0.00,   0.00,  991.7,    0.6, -999.0
30-10-2023, 00:35:10,    174,    0.5,    8.2,   0.00,   0.00,  991.7,    0.4, -999.0
30-10-2023, 00:35:19,    174,    0.2,    8.2,   0.00,   0.00,  991.7,    0.5, -999.0
30-10-2023, 00:35:30,    173,    0.2,    8.2,   0.00,   0.00,  991.6,    0.4, -999.0
30-10-2023, 00:35:40,    228,    0.9,    8.2,   0.00,   0.00,  991.7,    0.9, -999.0
30-10-2023, 00:35:49,    207,    0.7,    8.3,   0.00,   0.00,  991.7,    0.8, -999.0
30-10-2023, 00:35:59,    205,    0.2,    8.2,   0.00,   0.00,  991.7,    0.2, -999.0
30-10-2023, 00:36:10,    190,    1.7,    8.2,   0.00,   0.00,  991.8,    0.6, -999.0
30-10-2023, 00:36:19,    163,    1.5,    8.3,   0.00,   0.00,  991.8,    1.1, -999.0
30-10-2023, 00:36:29,    141,    0.7,    8.2,   0.00,   0.00,  991.7,    0.8, -999.0
30-10-2023, 00:36:39,    161,    0.7,    8.2,   0.00,   0.00,  991.8,    1.0, -999.0
30-10-2023, 00:36:50,    203,    0.5,    8.2,   0.00,   0.00,  991.7,    0.3, -999.0
30-10-2023, 00:36:59,    207,    0.1,    8.2,   0.00,   0.00,  991.7,    0.6, -999.0
30-10-2023, 00:37:09,    163,    0.9,    8.2,   0.00,   0.00,  991.7,    0.8, -999.0
30-10-2023, 00:37:19,    198,    0.9,    8.2,   0.00,   0.00,  991.8,    0.6, -999.0
30-10-2023, 00:37:29,    198,    0.0,    8.2,   0.00,   0.00,  991.7,    0.5, -999.0
30-10-2023, 00:37:39,    198,    0.1,    8.2,   0.00,   0.00,  991.7,    0.9, -999.0
30-10-2023, 00:37:49,    197,    0.5,    8.2,   0.00,   0.00,  991.7,    0.4, -999.0
30-10-2023, 00:38:00,    196,    0.2,    8.2,   0.00,   0.00,  991.7,    0.5, -999.0
30-10-2023, 00:38:09,    195,    0.0,    8.2,   0.00,   0.00,  991.6,    0.5, -999.0
30-10-2023, 00:38:19,    148,    0.8,    8.3,   0.00,   0.00,  991.8,    0.5, -999.0
30-10-2023, 00:38:29,    166,    1.3,    8.3,   0.00,   0.00,  991.8,    0.5, -999.0
30-10-2023, 00:38:39,    181,    0.2,    8.2,   0.00,   0.00,  991.7,    0.6, -999.0
30-10-2023, 00:38:49,    193,    2.6,    8.2,   0.00,   0.00,  991.8,    0.4, -999.0
30-10-2023, 00:38:59,    173,    0.5,    8.2,   0.00,   0.00,  991.7,    0.5, -999.0
30-10-2023, 00:39:09,    185,    1.0,    8.3,   0.00,   0.00,  991.8,    0.7, -999.0
30-10-2023, 00:39:19,    185,    0.0,    8.2,   0.00,   0.00,  991.6,    0.4, -999.0
30-10-2023, 00:39:29,    185,    0.0,    8.2,   0.00,   0.00,  991.7,    0.5, -999.0
30-10-2023, 00:39:39,    174,    0.5,    8.1,   0.00,   0.00,  991.7,    0.5, -999.0
30-10-2023, 00:39:49,    174,    0.2,    8.2,   0.00,   0.00,  991.7,    0.5, -999.0
30-10-2023, 00:39:59,    174,    0.1,    8.2,   0.00,   0.00,  991.7,    0.6, -999.0
30-10-2023, 00:40:09,    166,    1.2,    8.3,   0.00,   0.00,  991.8,    0.6, -999.0
30-10-2023, 00:40:19,    178,    1.4,    8.3,   0.00,   0.00,  991.8,    0.5, -999.0
30-10-2023, 00:40:29,    207,    2.3,    8.3,   0.00,   0.00,  991.8,    0.5, -999.0
30-10-2023, 00:40:39,    201,    2.8,    8.3,   0.00,   0.00,  991.8,    0.9, -999.0
30-10-2023, 00:40:49,    152,    1.5,    8.3,   0.00,   0.00,  991.8,    0.8, -999.0
30-10-2023, 00:40:59,    152,    0.8,    8.2,   0.00,   0.00,  991.8,    0.4, -999.0
30-10-2023, 00:41:09,    152,    0.0,    8.2,   0.00,   0.00,  991.6,    0.5, -999.0
30-10-2023, 00:41:19,    163,    0.7,    8.2,   0.00,   0.00,  991.7,    0.5, -999.0
30-10-2023, 00:41:29,    161,    0.8,    8.3,   0.00,   0.00,  991.8,    0.7, -999.0
30-10-2023, 00:41:39,    161,    0.0,    8.2,   0.00,   0.00,  991.6,    0.6, -999.0
30-10-2023, 00:41:49,    167,    0.4,    8.2,   0.00,   0.00,  991.7,    0.5, -999.0
30-10-2023, 00:41:59,    171,    0.1,    8.2,   0.00,   0.00,  991.7,    0.4, -999.0
30-10-2023, 00:42:09,    168,    0.1,    8.2,   0.00,   0.00,  991.7,    0.6, -999.0
30-10-2023, 00:42:19,    203,    1.2,    8.2,   0.00,   0.00,  991.8,    0.5, -999.0
30-10-2023, 00:42:29,    203,    0.0,    8.2,   0.00,   0.00,  991.6,    0.5, -999.0
30-10-2023, 00:42:39,    165,    0.8,    8.2,   0.00,   0.00,  991.7,    0.6, -999.0
30-10-2023, 00:42:49,    149,    1.1,    8.2,   0.00,   0.00,  991.8,    0.6, -999.0
30-10-2023, 00:42:58,    149,    0.9,    8.2,   0.00,   0.00,  991.7,    0.6, -999.0
30-10-2023, 00:43:09,    150,    0.0,    8.2,   0.00,   0.00,  991.6,    0.5, -999.0
30-10-2023, 00:43:19,    150,    0.0,    8.1,   0.00,   0.00,  991.6,    0.5, -999.0
30-10-2023, 00:43:29,    220,    1.3,    8.2,   0.00,   0.00,  991.8,    0.7, -999.0
30-10-2023, 00:43:38,    183,    1.4,    8.3,   0.00,   0.00,  991.8,    0.6, -999.0
30-10-2023, 00:43:49,    183,    1.2,    8.2,   0.00,   0.00,  991.8,    0.6, -999.0
30-10-2023, 00:43:59,    183,    0.6,    8.2,   0.00,   0.00,  991.7,    0.6, -999.0
30-10-2023, 00:44:08,    185,    0.4,    8.2,   0.00,   0.00,  991.7,    0.6, -999.0
30-10-2023, 00:44:18,    152,    0.6,    8.2,   0.00,   0.00,  991.7,    0.5, -999.0
30-10-2023, 00:44:29,    154,    0.6,    8.2,   0.00,   0.00,  991.7,    0.6, -999.0
30-10-2023, 00:44:38,    158,    0.3,    8.2,   0.00,   0.00,  991.7,    0.5, -999.0
30-10-2023, 00:44:48,    159,    0.4,    8.2,   0.00,   0.00,  991.8,    0.6, -999.0
30-10-2023, 00:44:58,    159,    0.6,    8.2,   0.00,   0.00,  991.8,    0.5, -999.0
30-10-2023, 00:45:09,    158,    0.3,    8.2,   0.00,   0.00,  991.7,    0.7, -999.0
30-10-2023, 00:45:18,    158,    0.0,    8.1,   0.00,   0.00,  991.6,    0.4, -999.0
30-10-2023, 00:45:28,    158,    0.0,    8.1,   0.00,   0.00,  991.6,    0.5, -999.0
30-10-2023, 00:45:39,    158,    0.2,    8.1,   0.00,   0.00,  991.7,    0.6, -999.0
30-10-2023, 00:45:48,    168,    0.6,    8.1,   0.00,   0.00,  991.7,    0.4, -999.0
30-10-2023, 00:45:58,    182,    1.8,    8.2,   0.00,   0.00,  991.8,    0.6, -999.0
30-10-2023, 00:46:08,    181,    0.1,    8.2,   0.00,   0.00,  991.7,    0.5, -999.0
30-10-2023, 00:46:18,    182,    0.2,    8.2,   0.00,   0.00,  991.7,    0.4, -999.0
30-10-2023, 00:46:28,    138,    2.4,    8.2,   0.00,   0.00,  991.8,    0.7, -999.0
30-10-2023, 00:46:38,    165,    1.7,    8.2,   0.00,   0.00,  991.8,    0.6, -999.0
30-10-2023, 00:46:48,    167,    0.5,    8.2,   0.00,   0.00,  991.8,    0.6, -999.0